Regional Weather Roundup
Issued by NWS

Home | Current Version | Previous Version | Graphics & Text | Print | Product List | Glossary On
Versions: 1 2 3 4 5 6 7 8 9 10 11 12 13 14 15 16 17 18 19 20 21 22 23 24 25 26 27
000
ASUS45 KBOI 211610
RWRID

IDAHO REGIONAL WEATHER ROUNDUP
NATIONAL WEATHER SERVICE BOISE ID
1000 AM MDT FRI JUL 21 2017

NOTE: "FAIR" INDICATES FEW OR NO CLOUDS BELOW 12000 FEET
WITH NO SIGNIFICANT WEATHER AND/OR OBSTRUCTIONS TO VISIBILITY

IDZ012-014-211700-
SOUTHWEST IDAHO


CITY           SKY/WX    TMP DP  RH WIND       PRES   REMARKS
BOISE          SUNNY     70  48  45 VRB5      30.09S
CALDWELL       SUNNY     72  45  37 W8        30.09S
MOUNTAIN HOME  SUNNY     76  43  30 NW13      30.08S
$$

IDZ016-017-211700-
SOUTHCENTRAL IDAHO


CITY           SKY/WX    TMP DP  RH WIND       PRES   REMARKS
BURLEY         SUNNY     72  45  37 VRB5      30.14R
JEROME         SUNNY     68  41  37 SW8       30.15R
TWIN FALLS     SUNNY     74  42  31 W7        30.15R
$$

IDZ019>023-211700-
SOUTHEAST IDAHO


CITY           SKY/WX    TMP DP  RH WIND       PRES   REMARKS
IDAHO FALLS    SUNNY     69  41  36 S6        30.17S
POCATELLO      SUNNY     75  42  30 SW9       30.16S
REXBURG        SUNNY     67  49  52 CALM      30.17S
$$

IDZ006-010-011-018-031-032-211700-
CENTRAL IDAHO MOUNTAINS


CITY           SKY/WX    TMP DP  RH WIND       PRES   REMARKS
MCCALL         SUNNY     64  41  42 CALM      30.19R
HAILEY         SUNNY     70  36  28 NW12      30.22S
STANLEY          N/A     58  32  37 N3        30.29F
SALMON         NOT AVBL
CHALLIS        SUNNY     65  38  36 NE3       30.20S
$$

IDZ002-004-006-007-026-211700-
NORTHERN IDAHO


CITY           SKY/WX    TMP DP  RH WIND       PRES   REMARKS
LEWISTON       SUNNY     69  45  41 N3        30.13R
LOWELL           N/A     63  45  51 CALM      30.13F
COEUR D`ALENE  SUNNY     65  44  46 NW5       30.14R
MULLAN PASS    SUNNY     54  37  52 VRB5      30.22R
$$




USA.gov is the U.S. government's official web portal to all federal, state and local government web resources and services.